Home   Weather   Mostar   Past weeks
Flag for Bosnia-Herzegovina

Past Weather in Mostar, Bosnia-Herzegovina — Yesterday and Last 2 Weeks

Now
75 °F

Passing clouds.


Feels Like: 78 °F
Forecast: 74 / 52 °F
Wind: 8 mph from West

Location: Mostar

Current Time: May 24, 2019 at 7:11:54 pm

Latest Report: May 24, 2019 at 6:00 pm


Visibility: N/A

Pressure: 29.80 "Hg

Humidity: 41%

Dew Point: 50 °F

Location of MostarLocation

Past Weather in Mostar — Graph

°F

Mostar Temperature Yesterday

Maximum temperature yesterday: 75 °F (at 2:00 pm)
Minimum temperature yesterday: 55 °F (at 6:00 am)
Average temperature yesterday: 62 °F

High & Low Weather Summary for the Past Weeks

 TemperatureHumidityPressure
High79 °F (May 24, 5:00 pm)100% (May 9, 7:00 pm)29.98 "Hg (May 9, 7:00 pm)
Low45 °F (May 17, 6:00 am)31% (May 11, 2:00 pm)29.62 "Hg (May 19, 2:00 pm)
Average60 °F74%29.84 "Hg
* Reported May 9 6:00 pm — May 24 6:00 pm, Mostar. Weather by CustomWeather, © 2019

Note: Actual official high and low records may vary slightly from our data, if they occured in-between our weather recording intervals... More about our weather records

Advertising

Mostar Weather History for the Previous 24 Hours

Scroll right to see more
 ConditionsComfort  
Time TempWeatherWind HumidityBarometerVisibility
6:00 pm
Fri, May 24
75 °FPassing clouds.8 mph41%29.80 "HgN/A
5:00 pm79 °FPassing clouds.6 mph37%29.80 "HgN/A
4:00 pm77 °FPassing clouds.8 mph34%29.80 "HgN/A
3:00 pm77 °FScattered clouds.6 mph36%29.83 "HgN/A
2:00 pm75 °FScattered clouds.9 mph39%29.83 "HgN/A
1:00 pm75 °FScattered clouds.8 mph39%29.83 "HgN/A
12:00 pm75 °FPassing clouds.7 mph39%29.86 "HgN/A
11:30 am72 °FPassing clouds.2 mph50%29.86 "HgN/A
11:00 am72 °FPassing clouds.5 mph50%29.86 "HgN/A
10:30 am72 °FPassing clouds.6 mph44%29.86 "HgN/A
10:00 am68 °FPassing clouds.3 mph56%29.89 "HgN/A
9:30 am66 °FPassing clouds.5 mph60%29.89 "HgN/A
9:00 am64 °FPassing clouds.2 mph68%29.89 "HgN/A
8:30 am61 °FPassing clouds.2 mph83%29.89 "HgN/A
8:00 am59 °FPassing clouds.2 mph82%29.89 "HgN/A
7:30 am57 °FPassing clouds.2 mph88%29.89 "HgN/A
7:00 am55 °FPassing clouds.1 mph88%29.89 "HgN/A
6:30 am54 °FPassing clouds.2 mph94%29.89 "HgN/A
6:00 am52 °FPassing clouds.3 mph100%29.89 "HgN/A
5:30 am52 °FPassing clouds.2 mph94%29.89 "HgN/A
5:00 am52 °FPassing clouds.2 mph94%29.89 "HgN/A
4:00 am52 °FPassing clouds.3 mph100%29.89 "HgN/A
3:00 am54 °FPassing clouds.1 mph94%29.89 "HgN/A
2:00 am54 °FPassing clouds.2 mph94%29.89 "HgN/A
1:00 am55 °FPassing clouds.3 mph88%29.89 "HgN/A
12:00 am57 °FPassing clouds.2 mph94%29.92 "HgN/A
11:00 pm
Thu, May 23
59 °FPassing clouds.3 mph88%29.92 "HgN/A
10:30 pm59 °FPassing clouds.1 mph94%29.89 "HgN/A
10:00 pm61 °FPassing clouds.2 mph88%29.89 "HgN/A
9:00 pm61 °FPassing clouds.6 mph88%29.89 "HgN/A
8:00 pm63 °FScattered clouds.2 mph83%29.89 "HgN/A
7:00 pm64 °FBroken clouds.5 mph78%29.89 "HgN/A
Weather by CustomWeather, © 2019

See weather overview